Flag for China Weather past 2 weeks in Shenzhen, Guangdong, China

Now
82 °F

Fog.


Feels Like: 91 °F
Forecast: 76 / 88 °F
Wind: 3 mph from Northwest

Location: Shenzhen Airport

Current Time: May 24, 2015 at 12:16:55 PM

Latest Report: May 24, 2015 at 11:00 AM


Visibility: 1 mi

Pressure: 29.74 "Hg

Humidity: 84%

Dew point: 77 °F

Location of ShenzhenLocation

Historic Weather in Shenzhen — Graph

°F

Shenzhen temperature yesterday

Maximum temperature yesterday: 81 °F (at 1:00 PM)
Minimum temperature yesterday: 75 °F (at 3:00 PM)
Average temperature yesterday: 78 °F

Past Weeks' High & Low Weather Summary

 TemperatureHumidityPressure
High88 °F (May 12, 3:00 PM)100% (May 23, 3:00 PM)29.95 "Hg (May 23, 3:00 PM)
Low72 °F (May 11, 6:00 PM)31% (May 12, 2:00 PM)29.65 "Hg (May 23, 2:00 PM)
Average80 °F83%29.79 "Hg
* Reported May 9 10:00 AM — May 24 10:00 AM, Shenzhen, Weather by CustomWeather, © 2015

Note: Actual official high and low records may vary slightly from our data, if they occured in-between our weather recording intervals... More about our weather records

Advertising

Shenzhen weather history for previous 24 hours

 ConditionsComfort  
Time TempWeatherWind HumidityBarometerVisibility
10:00 AM
Sun, May 24
81 °FLight rain. Fog.3 mph84%29.74 "Hg2 mi
9:00 AM81 °FFog.3 mph89%29.71 "Hg1 mi
8:00 AM79 °FFog.6 mph94%29.71 "Hg1 mi
7:00 AM79 °FFog.No wind94%29.68 "Hg3 mi
6:00 AM77 °FFog.3 mph94%29.65 "Hg3 mi
5:00 AM77 °FFog.3 mph94%29.65 "Hg3 mi
4:00 AM77 °FPartly cloudy.6 mph94%29.65 "Hg4 mi
3:00 AM77 °FMostly cloudy.No wind94%29.65 "Hg5 mi
2:00 AM77 °FPassing clouds.No wind94%29.68 "Hg5 mi
1:00 AM77 °FPassing clouds.1 mph94%29.71 "HgN/A
12:00 AM77 °FPassing clouds.No wind94%29.71 "HgN/A
11:00 PM
Sat, May 23
77 °FPassing clouds.No wind94%29.71 "HgN/A
10:00 PM77 °FPassing clouds.1 mph94%29.68 "HgN/A
9:00 PM77 °FPassing clouds.6 mph94%29.71 "HgN/A
8:00 PM77 °FPassing clouds.3 mph94%29.68 "HgN/A
7:00 PM77 °FPartly cloudy.3 mph94%29.68 "HgN/A
6:00 PM77 °FThunderstorms. Broken clouds.1 mph94%29.68 "Hg4 mi
5:00 PM75 °FThunderstorms. Broken clouds.1 mph100%29.68 "Hg4 mi
4:00 PM75 °FThunderstorms. Broken clouds.3 mph100%29.68 "HgN/A
3:00 PM75 °FStrong thunderstorms. Broken clouds.6 mph100%29.68 "Hg1 mi
2:00 PM79 °FThunderstorms. Broken clouds.8 mph94%29.65 "Hg2 mi
1:00 PM81 °FBroken clouds.6 mph89%29.68 "HgN/A
12:00 PM79 °FSprinkles. Broken clouds.6 mph94%29.68 "Hg5 mi
Weather by CustomWeather, © 2015

See weather overviewHow to use our weather pages